Location: Kimberly
(42.5380°N, 114.3640°W)
Time: 16:13:15
(UTC-07:00)

N. Korean satellite - Visible Passes

Search period start: 21 February 2018 00:00
Search period end: 03 March 2018 00:00
Orbit: 459 x 514 km, 97.2° (Epoch: 21 February)

Date Brightness Start Highest point End Pass type
(mag) Time Alt. Az. Time Alt. Az. Time Alt. Az.
21 Feb 10.4 06:14:30 10° ENE 06:16:06 12° E 06:17:42 10° ESE visible
22 Feb 10.1 19:34:34 10° WSW 19:36:18 13° W 19:38:01 10° WNW visible
23 Feb 9.1 19:09:27 10° SSW 19:12:22 25° W 19:15:20 10° NW visible
24 Feb 9.6 06:35:32 10° NE 06:38:31 23° E 06:41:31 10° SSE visible
24 Feb 7.5 18:45:10 10° S 18:48:31 53° W 18:51:58 10° NNW visible
25 Feb 10.5 06:13:03 10° ENE 06:14:36 12° E 06:16:09 10° ESE visible
26 Feb 10.1 19:32:52 10° SW 19:34:44 14° W 19:36:37 10° WNW visible
27 Feb 9.1 19:07:49 10° SSW 19:10:48 26° W 19:13:51 10° NW visible
28 Feb 9.7 06:34:01 10° NE 06:36:59 22° E 06:39:58 10° SSE visible
01 Mar 10.5 06:11:36 10° ENE 06:13:03 12° E 06:14:30 10° ESE visible
02 Mar 10.0 19:31:07 10° SW 19:33:08 15° W 19:35:10 10° WNW visible
